Location: Home
(42.5358°N, 72.7383°W)
Time: 12:38:46
(UTC-05:00)

A-11 Canister half - Pass Details

Date: 05 December 2021
Orbit: 1516 x 1684 km, 47.2° (Epoch: 26 January)

Event Time Altitude Azimuth Distance (km) Brightness Sun altitude
Rises 05:41:56 0° 219° (SW) 4,715 11.3 -14.9°
Reaches altitude 10° 05:45:02 10° 214° (SW) 3,754 10.9 -14.3°
Maximum altitude 05:54:12 54° 141° (SE) 1,893 9.8 -12.7°
Drops below altitude 10° 06:03:45 10° 68° (ENE) 3,896 11.8 -11.1°
Sets 06:07:01 0° 64° (ENE) 4,903 12.3 -10.5°
